NNS 30120

operational
NORAD ID: 2754 Int'l Des: 1967-034 Owner: NAVAIR Country: US
LEOCIRCULARRETROGRADE

Über NNS 30120

Beschreibung wird geladen...

Live-Position

3D-Globus wird geladen...

Nächste Überflüge

Höhenverlauf

Altitude vs Time

uPlot chart will show altitude changes over time

Zweizeiliger Elementsatz

1 2754U 67034A 26063.45495824 .00000157 00000-0 20646-3 0 9990
2 2754 90.2309 32.6612 0021638 92.0794 31.8878 13.57379570911906
Epoch: 4. März 2026 • Age: 16 hours

Aktueller Status

Höhe 1042.7 km
Geschwindigkeit 7.34 km/s
Subsatellitenpunkt 77.22°N, 169.41°E
Typ other

Große Konstellationen

Loading constellations...